FENGYUN 1C DEB, 32430

Orbit data source: Space-Track

FENGYUN 1C DEB, 32430 is space debris in SSO originally from a launch on Mon, 10 May 1999 UTC launched from the Taiyaun Space Center, China (TSC). Fengyun 1C debris stems from the Chinese weather satellite Fengyun-1C, which was intentionally destroyed by a Chinese anti-satellite missile in 2007. This event dramatically increased the amount of space debris, with thousands of trackable fragments posing hazards to satellites and human spaceflight. The Fengyun 1C debris cloud has become a focal point in discussions about space sustainability and the need for international regulations to prevent the creation of new debris.

Loading next visibility...
Identifier
32430, 1999-025DAS
Orbit
SSO
Country
Flag of CNCN / PRC
Related business
Manufacturer
Unknown
Mission
Spacecraft
Bus & Motor
Unknown
Mass
Unknown
Launch date (UTC)
1999-05-10 (27 years ago)
Launch vehicle
Unknown
Launch site
Taiyaun Space Center, China (TSC)
Object type
Payload
Rocket body
Debris
Shape & HBR
Unknown shape, 0.1 m
Radar Cross Section
Small (<0.1 m²)

Expand to show TLE details & history
Last TLE update: 3 days ago

TLE from 3 days ago
0 FENGYUN 1C DEB
1 32430U 99025DAS 26262.76053662  .00001823  00000-0  12842-2 0  9993
2 32430  98.6872 266.3786 0364510 242.1552 114.2222 13.71697651950545
Epoch: 2026-09-19T18:15Z
TLE epoch observation values (Epoch: 2026-09-19T18:15:10.363Z)
Latitude
-0.00009°
Longitude
-6.07901°
Altitude
1,114.558 km
Speed
7.237 km/s
True Right ascension
17h 45m 30s
True Declination
0° 00' 00"
Sunlit
Object was in daylight at epoch
Visualization orbit readout
Latitude
Unknown
Longitude
Unknown
Altitude
Unknown
Speed
Unknown
Apparent Right ascension
Unknown
Apparent Declination
Unknown
Sunlit
N/A
Visualization observer readout
Local Sidereal Time
03:42:45
Azimuth
Unknown
Elevation
Unknown
Doppler factor
Unknown
Orbital elements
Apogee altitude
1,259.301 km
Perigee altitude
722.098 km
Semi-major axis
7,368.836 km
Eccentricity
0.03645
Inclination
98.6872°
RAAN
266.3786°
Arg. of periapsis
242.1552°
True anomaly
117.95884°
Mean anomaly
114.2222°
Eccentric anomaly
116.09776°
Mean motion
3.43119 °/min
Orbital period
104.92 mins
BSTAR
0.0012842
Loading maneuver chart data...
Computing Atmospheric mass density...

Documentation

Showing up to 5 results
|